FW9984 Weather Reports


time (UTC)temp
C
wind
direction
speed
KPH
gust
KPH
rain 1hr
cm
rain 24hr
cm
rain mn
cm
humidity
%
barometer
mb
20260506120058 21 163 6.4 24.1 0.00 0.00 0.00 54 1009.7
20260506114557 21 131 8.0 19.3 0.00 0.00 0.00 55 1009.7
20260506113100 22 134 4.8 20.9 0.00 0.00 0.00 53 1010.0
20260506111559 22 166 6.4 17.7 0.00 0.00 0.00 54 1010.2
20260506110058 21 207 4.8 29.0 0.00 0.00 0.00 58 1010.4
20260506104601 20 218 6.4 14.5 0.00 0.00 0.00 58 1010.7
20260506103056 20 264 4.8 17.7 0.00 0.00 0.00 59 1010.7
20260506101556 20 200 4.8 14.5 0.00 0.00 0.00 59 1010.9
20260506100104 20 145 8.0 25.7 0.00 0.00 0.00 59 1010.9
20260506094613 20 241 9.7 20.9 0.00 0.00 0.00 59 1011.0
20260506093058 20 257 6.4 16.1 0.00 0.00 0.00 57 1010.9
20260506091558 21 212 6.4 22.5 0.00 0.00 0.00 56 1010.8
20260506090100 22 176 4.8 17.7 0.00 0.00 0.00 55 1010.6
20260506084601 21 162 3.2 16.1 0.00 0.00 0.00 53 1010.6
20260506083103 21 184 9.7 24.1 0.00 0.00 0.00 51 1010.6
20260506081556 21 152 8.0 19.3 0.00 0.00 0.00 53 1010.5
20260506080108 21 181 8.0 19.3 0.00 0.00 0.00 55 1010.6
20260506073116 21 178 6.4 17.7 0.00 0.00 0.00 53 1010.2
20260506071600 21 190 8.0 17.7 0.00 0.00 0.00 52 1010.2
20260506070109 20 159 4.8 14.5 0.00 0.00 0.00 54 1010.1
20260506061601 19 228 4.8 11.3 0.00 0.00 0.00 57 1010.4
20260506050113 17 205 1.6 12.9 0.00 0.00 0.00 68 1010.2
20260506044555 16 277 4.8 12.9 0.00 0.00 0.00 68 1010.3
20260506043102 16 168 1.6 4.8 0.00 0.00 0.00 71 1010.2
20260506041559 14 218 3.2 11.3 0.00 0.00 0.00 74 1010.1
20260506040058 14 224 0.0 3.2 0.00 0.00 0.00 75 1010.1
20260506034603 14 199 0.0 4.8 0.00 0.00 0.00 74 1010.0
20260506033109 14 198 1.6 4.8 0.00 0.00 0.00 74 1010.0
20260506031556 14 245 1.6 8.0 0.00 0.00 0.00 72 1009.9
20260506024615 15 205 1.6 11.3 0.00 0.00 0.00 71 1010.1
20260506023105 15 254 3.2 12.9 0.00 0.00 0.00 70 1010.1
20260506021600 15 152 1.6 8.0 0.00 0.00 0.00 71 1010.1
20260506020056 15 200 3.2 12.9 0.00 0.00 0.00 71 1009.8
20260506014558 15 188 1.6 6.4 0.00 0.00 0.00 71 1009.8
20260506013103 15 238 1.6 12.9 0.00 0.00 0.00 71 1009.7
20260506011623 15 271 1.6 9.7 0.00 0.00 0.00 71 1009.5
20260506010115 15 292 4.8 12.9 0.00 0.00 0.00 71 1009.5
20260506004604 15 191 3.2 17.7 0.00 0.00 0.00 71 1009.6
20260506003103 15 162 4.8 19.3 0.00 0.00 0.00 71 1009.6
20260506001602 15 209 3.2 9.7 0.00 0.00 0.00 72 1009.5
20260505234601 15 228 3.2 14.5 0.00 0.00 0.00 71 1009.6
20260505233059 15 233 4.8 11.3 0.00 0.00 0.00 71 1009.8
20260505231557 15 86 3.2 12.9 0.00 0.00 0.00 72 1009.7
20260505230100 15 155 1.6 6.4 0.00 0.00 0.00 72 1009.8
20260505224558 15 205 1.6 12.9 0.00 0.00 0.00 72 1009.6
20260505223100 15 143 1.6 11.3 0.00 0.00 0.00 74 1009.5
20260505221604 15 172 4.8 11.3 0.00 0.00 0.00 73 1009.7
20260505220107 15 189 1.6 9.7 0.00 0.00 0.00 73 1009.8
20260505214602 15 160 4.8 11.3 0.00 0.00 0.00 73 1009.9
20260505213057 15 79 6.4 12.9 0.00 0.00 0.00 74 1009.8
20260505211559 15 197 4.8 14.5 0.00 0.00 0.00 74 1010.0
20260505210059 15 200 3.2 12.9 0.00 0.00 0.00 73 1010.4
20260505204606 15 0 3.2 12.9 0.00 0.00 0.00 73 1010.2
20260505203106 15 215 1.6 11.3 0.00 0.00 0.00 73 1010.0
20260505201559 15 200 1.6 11.3 0.00 0.00 0.00 73 1010.3
20260505200056 15 214 1.6 11.3 0.00 0.00 0.00 73 1010.3
20260505194603 15 146 1.6 8.0 0.00 0.00 0.00 72 1010.2
20260505193057 15 195 0.0 8.0 0.00 0.00 0.00 72 1010.2
20260505191558 15 255 3.2 16.1 0.00 0.00 0.00 70 1010.1
20260505190056 16 149 4.8 22.5 0.00 0.00 0.00 69 1010.1
20260505184557 16 257 3.2 17.7 0.00 0.00 0.00 68 1010.1
20260505183058 16 184 8.0 25.7 0.00 0.00 0.00 67 1010.0
20260505181610 16 206 4.8 14.5 0.00 0.00 0.00 66 1010.1
20260505180056 16 180 3.2 19.3 0.00 0.00 0.00 66 1010.0
20260505174558 16 157 3.2 12.9 0.00 0.00 0.00 64 1010.3
20260505173057 17 205 4.8 9.7 0.00 0.00 0.00 62 1010.3
20260505171557 17 200 3.2 12.9 0.00 0.00 0.00 60 1010.5
20260505170057 18 140 8.0 19.3 0.00 0.00 0.00 57 1010.4
20260505164603 18 239 6.4 16.1 0.00 0.00 0.00 55 1010.4
20260505163058 18 184 4.8 24.1 0.00 0.00 0.00 56 1010.6
20260505161601 19 210 3.2 17.7 0.00 0.00 0.00 56 1010.8
20260505153110 18 253 9.7 29.0 0.00 0.00 0.00 56 1011.1
20260505151558 18 148 9.7 25.7 0.00 0.00 0.00 55 1010.9
20260505140107 20 150 4.8 25.7 0.00 0.00 0.00 51 1011.1
20260505124609 20 211 12.9 30.6 0.00 0.00 0.00 49 1011.3
20260505123100 21 220 11.3 22.5 0.00 0.00 0.00 49 1011.4
20260505121600 21 272 6.4 19.3 0.00 0.00 0.00 48 1011.3